Wind_Speed
14 13 10 8 6 6 8 9 9 10 10 9 7 5 7 8 9 9 8 8 8 9 11 12 13 13 13 16 18 18 18 16 19 21 24 28 26 24 27 22 31 32 33
15 13 10 8 6 5 6 7 8 9 10 10 10 9 9 9 10 11 11 11 11 11 13 13 13 13 14 13 14 13 14 13 14 14 17 13 17 21 24 21 20 33 33
13 11 10 9 7 6 5 6 7 9 9 9 8 7 7 7 7 7 9 10 11 12 13 12 13 14 14 13 14 12 11 11 9 7 7 6 6 9 13 14 18 17 20
12 11 10 8 8 6 6 7 8 8 7 7 7 7 6 6 7 8 10 11 11 11 11 12 12 11 11 12 11 11 10 10 12 8 9 13 15 10 14 14 8 5 12
11 10 8 8 7 7 5 6 6 7 8 8 8 8 8 7 7 8 8 9 10 11 11 11 11 11 10 9 7 7 9 9 9 9 7 8 13 16 11 14 19 18 11
11 11 10 10 8 8 7 6 8 8 8 9 9 8 8 8 7 7 6 7 8 9 10 10 11 11 10 9 8 7 7 7 7 7 6 5 4 7 6 7 12 16 16
13 14 13 12 10 10 10 10 10 10 9 9 9 9 8 8 8 8 7 7 7 8 8 10 11 10 9 9 8 8 8 7 7 8 8 5 4 3 3 3 8 10 7
8 10 12 15 15 14 14 13 13 12 11 9 9 10 9 9 9 9 9 8 8 8 10 12 14 12 10 9 8 8 9 8 7 8 8 8 8 6 5 3 5 5 3
4 4 8 12 16 18 16 15 15 13 12 11 11 10 9 9 9 9 9 9 10 11 15 17 16 15 15 14 14 12 9 9 8 7 7 8 7 6 6 6 5 5 4
3 3 5 9 13 16 18 19 17 14 13 13 12 10 9 9 10 10 11 12 15 17 20 20 17 15 14 10 8 6 5 6 8 8 8 7 6 6 5 3 4 8 8
4 5 6 7 9 12 16 18 18 16 14 15 12 11 10 9 10 12 14 16 18 19 19 17 14 12 11 9 6 4 4 5 5 4 5 6 6 6 5 5 4 4 4
5 6 7 7 8 8 10 14 17 17 16 14 12 11 10 9 11 14 17 18 18 18 17 17 16 14 11 8 6 4 4 6 8 8 6 5 5 5 6 6 6 5 6
6 5 5 7 10 12 12 14 16 16 15 13 11 11 9 10 14 17 19 19 16 15 15 14 13 12 10 8 7 6 5 5 8 8 9 8 6 6 7 7 6 6 6
6 4 5 9 12 13 13 13 13 14 14 12 11 10 10 12 17 18 17 16 16 14 12 12 11 9 8 5 5 8 8 8 8 8 8 7 7 7 6 7 7 7 8
5 4 7 10 14 14 11 10 12 13 13 12 11 11 12 16 18 17 16 14 14 13 12 11 10 8 5 4 3 8 11 10 10 9 8 7 8 7 5 5 7 8 7
4 6 9 10 11 10 8 7 10 12 11 11 11 12 15 18 17 16 14 12 12 12 11 10 9 7 5 6 8 7 12 12 11 9 8 7 7 6 5 4 4 5 6
6 7 9 9 8 7 5 6 9 10 11 12 12 14 17 16 15 14 13 12 11 11 11 10 9 8 8 10 11 6 13 12 11 9 9 6 6 3 1 3 5 8 7
5 7 8 7 7 5 5 7 9 11 12 13 15 16 15 13 13 14 13 12 12 11 10 10 11 12 12 12 10 6 12 12 11 10 8 6 4 3 1 7 9 8 7
7 8 7 6 6 5 6 8 10 12 14 14 14 13 12 13 13 13 13 12 12 12 12 13 13 13 11 10 9 6 11 10 8 6 6 6 6 2 3 7 8 9 7
9 8 8 7 6 7 8 10 11 12 11 11 11 13 13 13 14 14 14 14 14 15 14 13 13 12 10 8 7 3 10 8 7 5 4 4 5 6 1 9 11 7 11
9 9 8 8 7 7 7 8 9 10 11 12 13 14 14 15 15 16 15 16 16 15 14 13 11 10 9 7 7 5 8 9 6 5 8 6 4 2 4 10 7 10 8
10 10 9 9 9 8 9 10 10 11 12 13 14 15 15 16 17 18 17 16 16 15 13 12 10 9 8 8 8 5 6 7 9 9 10 6 3 8 5 7 9 8 14
10 10 11 11 11 11 12 13 12 13 14 16 17 17 18 18 18 18 17 16 16 15 13 13 10 8 8 8 9 8 7 8 9 9 8 10 11 13 13 11 15 18 19
11 12 12 13 14 14 15 16 16 17 18 19 20 19 19 18 19 18 17 17 16 15 15 12 9 9 10 8 7 8 5 8 9 9 10 12 12 11 11 18 19 21 19
14 15 16 16 16 17 18 18 19 21 22 22 21 20 20 19 19 18 18 18 17 16 13 10 9 12 12 8 4 7 11 11 13 13 10 12 14 17 20 20 18 16 15
17 18 18 19 20 21 22 22 21 23 23 23 22 20 21 20 20 19 19 17 18 15 14 14 14 15 14 13 12 11 11 10 14 14 15 19 20 20 17 16 15 14 14
Wind_Direction
245 253 259 264 295 333 350 356 7 17 26 30 28 17 11 9 359 359 357 346 334 332 329 325 326 325 321 314 303 286 275 266 270 272 271 266 264 263 259 263 247 242 245
240 245 253 264 291 321 327 340 352 1 11 14 19 23 28 24 20 16 13 10 8 3 358 355 347 338 332 332 316 297 281 270 272 274 277 284 273 262 260 264 264 251 254
238 241 245 246 255 279 306 331 345 353 359 3 7 7 4 0 1 1 3 4 355 353 352 353 350 350 350 343 340 334 318 300 279 280 266 294 261 283 255 255 254 260 259
229 234 243 252 256 273 311 333 335 338 341 345 349 347 343 341 347 355 357 354 350 345 341 337 335 335 336 334 340 343 343 335 309 290 252 248 267 286 278 272 259 254 244
220 225 234 244 252 263 270 293 308 317 328 334 334 333 330 331 343 348 346 343 344 343 343 339 336 327 323 328 332 331 342 342 332 319 293 264 253 259 269 261 255 267 246
218 223 230 237 250 260 268 281 294 303 313 315 315 316 320 328 333 327 329 331 336 339 337 334 328 325 328 328 326 327 325 319 329 343 342 318 327 304 309 289 265 267 276
218 228 236 242 250 261 268 274 279 288 294 295 301 305 307 312 312 315 323 328 331 334 341 346 338 329 326 327 330 331 327 318 313 299 301 310 325 319 305 296 295 260 247
215 240 251 252 254 257 263 265 269 275 279 289 295 296 298 303 310 315 319 320 327 337 347 344 334 325 326 332 332 331 326 322 322 319 317 308 297 284 285 308 311 307 254
198 249 260 258 256 257 263 265 266 269 277 281 281 285 295 300 302 299 299 304 313 320 322 319 311 304 304 305 303 306 315 319 325 326 326 328 331 328 304 274 277 315 314
182 238 265 266 261 257 257 258 259 260 261 266 272 280 286 290 291 292 292 295 303 308 312 310 303 297 295 297 302 301 297 300 308 321 337 337 340 346 345 340 290 285 287
194 251 271 277 270 258 252 254 255 258 261 260 265 269 274 283 286 291 298 302 303 305 307 300 296 289 282 285 293 306 336 340 328 322 315 325 338 345 344 349 344 329 322
236 257 275 296 306 296 277 270 264 257 254 252 256 262 267 278 290 299 300 301 300 300 295 288 282 277 273 268 269 294 309 291 330 342 327 319 323 331 336 342 345 345 340
230 250 286 322 329 314 298 276 259 250 246 249 251 255 269 287 296 299 300 300 299 298 292 288 284 277 266 263 279 291 283 324 316 304 301 309 311 316 330 342 344 345 347
229 264 325 324 308 304 287 267 251 243 242 242 248 260 271 291 303 303 303 298 296 296 291 285 283 278 271 265 313 324 325 319 309 297 289 289 286 293 314 331 337 336 337
235 299 317 320 313 304 293 263 241 237 240 245 253 260 276 301 304 301 297 295 292 292 289 285 280 276 280 283 298 306 304 304 302 297 292 284 274 275 279 321 328 326 336
236 296 313 315 312 308 292 259 242 239 241 248 254 269 293 300 299 297 296 294 292 288 286 286 288 287 293 305 286 294 291 291 296 294 288 285 281 278 272 267 291 310 338
281 306 315 319 320 310 281 246 239 241 246 255 268 283 294 295 295 294 294 295 292 286 283 285 292 301 303 281 275 279 277 283 295 292 292 293 287 287 254 313 316 325 319
282 306 319 326 325 310 279 253 245 249 255 266 279 287 290 290 293 293 292 292 288 286 288 291 290 287 282 276 270 269 273 283 287 287 293 296 292 260 1 335 324 327 332
312 322 324 320 303 289 270 258 256 261 272 279 284 285 288 291 291 290 289 285 280 283 287 288 289 287 283 273 260 252 279 290 284 278 278 288 296 288 341 300 316 323 326
325 328 321 311 300 285 277 272 269 271 276 279 280 283 286 286 285 284 282 281 284 287 288 288 287 284 280 271 261 232 288 303 295 287 296 291 292 310 317 308 302 328 322
326 322 326 314 313 306 298 287 283 283 283 281 282 283 285 286 285 283 282 283 284 283 285 284 280 275 273 270 262 253 278 297 292 296 314 322 328 311 285 290 323 330 302
326 324 325 316 315 306 299 289 286 285 284 283 284 286 288 286 285 284 282 281 280 280 280 278 275 268 273 278 272 265 248 263 280 288 295 304 315 305 272 263 293 283 286
320 318 314 312 308 303 299 295 293 290 290 291 289 289 288 286 283 281 277 274 275 275 273 274 266 260 272 274 271 261 226 247 263 283 291 291 272 269 276 276 290 300 304
310 311 312 311 307 302 299 295 295 296 294 291 290 289 287 285 281 277 274 273 272 271 271 264 254 278 287 280 261 226 256 279 282 285 278 279 279 278 278 297 301 302 302
314 313 310 307 305 302 299 299 297 294 292 290 288 287 287 284 279 275 274 273 272 269 261 249 278 291 292 282 259 279 295 298 299 287 277 282 285 290 296 298 299 300 301
315 311 307 304 304 302 299 298 296 293 292 289 288 287 285 281 278 277 273 272 272 261 259 260 269 282 282 281 275 267 268 276 275 270 278 286 291 296 298 301 303 304 303
Height
1525 1526 1525 1525 1526 1526 1526 1525 1523 1521 1518 1517 1514 1512 1511 1510 1509 1507 1505 1504 1502 1501 1499 1499 1498 1497 1496 1495 1494 1495 1494 1494 1492 1491 1490 1489 1490 1491 1492 1492 1492 1494 1498
1521 1523 1524 1526 1526 1525 1524 1523 1522 1520 1519 1517 1515 1513 1511 1510 1509 1507 1506 1504 1502 1500 1499 1497 1496 1494 1493 1492 1492 1490 1489 1489 1488 1488 1487 1485 1485 1484 1485 1486 1487 1489 1491
1518 1520 1521 1520 1520 1520 1519 1520 1521 1521 1519 1517 1515 1513 1512 1510 1509 1508 1506 1504 1502 1500 1498 1496 1495 1493 1492 1491 1489 1488 1487 1485 1484 1484 1485 1484 1481 1479 1480 1481 1483 1484 1485
1515 1517 1519 1520 1520 1519 1521 1521 1520 1518 1516 1515 1514 1514 1512 1511 1508 1507 1505 1504 1502 1501 1498 1497 1495 1493 1492 1490 1488 1486 1485 1484 1482 1482 1481 1481 1480 1481 1479 1479 1480 1480 1478
1510 1513 1515 1516 1517 1517 1514 1514 1514 1514 1514 1514 1513 1512 1511 1509 1506 1505 1504 1503 1502 1500 1498 1497 1495 1493 1491 1490 1488 1486 1485 1483 1482 1480 1478 1477 1477 1477 1477 1476 1477 1477 1474
1510 1512 1512 1512 1512 1512 1512 1511 1511 1511 1511 1510 1510 1509 1508 1507 1505 1503 1502 1501 1501 1499 1497 1496 1494 1492 1490 1489 1487 1485 1484 1483 1482 1480 1478 1476 1475 1474 1473 1473 1472 1473 1470
1506 1507 1508 1509 1510 1510 1509 1508 1508 1509 1509 1508 1507 1507 1506 1505 1504 1503 1500 1499 1499 1498 1496 1495 1494 1491 1489 1486 1485 1485 1483 1482 1480 1479 1478 1476 1475 1473 1472 1471 1470 1470 1468
1502 1504 1506 1507 1506 1506 1505 1504 1504 1506 1506 1505 1504 1504 1504 1502 1501 1501 1500 1499 1498 1496 1495 1494 1493 1490 1488 1486 1483 1482 1482 1481 1478 1477 1476 1475 1474 1472 1471 1470 1468 1467 1466
1500 1500 1502 1502 1503 1503 1503 1502 1501 1501 1502 1502 1502 1501 1500 1500 1498 1497 1496 1496 1496 1495 1493 1492 1490 1489 1486 1484 1482 1480 1478 1479 1478 1475 1474 1474 1472 1471 1470 1469 1467 1465 1464
1496 1497 1497 1498 1498 1499 1499 1498 1497 1496 1496 1498 1498 1498 1497 1496 1496 1495 1494 1492 1493 1492 1491 1488 1486 1484 1484 1482 1479 1477 1475 1475 1476 1475 1472 1472 1471 1470 1469 1467 1466 1464 1463
1492 1495 1495 1495 1494 1493 1493 1493 1493 1493 1492 1493 1494 1494 1494 1493 1493 1491 1491 1490 1488 1487 1486 1485 1482 1481 1480 1480 1477 1475 1474 1473 1474 1472 1471 1470 1469 1468 1467 1466 1464 1463 1462
1491 1491 1491 1491 1490 1489 1489 1489 1488 1488 1488 1489 1490 1491 1491 1490 1491 1489 1488 1485 1483 1481 1480 1481 1479 1478 1477 1475 1475 1473 1472 1471 1472 1471 1469 1468 1467 1465 1465 1464 1463 1461 1459
1487 1489 1488 1487 1487 1488 1486 1485 1484 1485 1486 1487 1488 1488 1489 1489 1488 1487 1485 1482 1479 1476 1476 1476 1475 1474 1473 1472 1471 1470 1469 1469 1469 1469 1468 1467 1465 1464 1463 1462 1461 1459 1458
1485 1486 1485 1484 1484 1482 1481 1480 1480 1482 1483 1484 1485 1486 1486 1486 1484 1483 1480 1478 1475 1473 1473 1472 1472 1471 1469 1469 1468 1467 1466 1466 1467 1467 1465 1464 1463 1462 1461 1461 1460 1458 1457
1482 1482 1481 1481 1481 1479 1477 1477 1477 1479 1480 1481 1482 1483 1482 1481 1480 1478 1476 1475 1473 1470 1470 1469 1469 1467 1466 1467 1465 1465 1465 1464 1464 1464 1462 1461 1460 1459 1459 1459 1458 1457 1456
1478 1477 1477 1477 1477 1475 1474 1474 1475 1476 1477 1478 1478 1479 1478 1477 1476 1474 1473 1471 1469 1468 1467 1466 1465 1464 1463 1464 1463 1464 1462 1461 1460 1459 1459 1457 1456 1456 1456 1456 1456 1455 1455
1474 1475 1475 1474 1473 1473 1473 1473 1473 1474 1474 1474 1474 1474 1473 1472 1472 1472 1470 1468 1466 1465 1464 1462 1462 1461 1460 1460 1460 1460 1458 1457 1456 1455 1455 1454 1453 1453 1453 1453 1452 1452 1451
1473 1473 1472 1471 1471 1471 1471 1471 1471 1471 1472 1471 1470 1469 1469 1467 1468 1468 1467 1464 1463 1462 1461 1459 1458 1457 1457 1456 1455 1456 1455 1454 1453 1452 1451 1451 1451 1451 1451 1450 1450 1450 1449
1474 1471 1471 1469 1469 1470 1470 1470 1470 1469 1469 1467 1466 1465 1465 1464 1464 1463 1463 1461 1459 1458 1456 1455 1454 1453 1452 1451 1451 1452 1451 1450 1449 1449 1448 1448 1447 1448 1449 1448 1447 1447 1446
1474 1471 1470 1469 1468 1468 1468 1468 1466 1465 1465 1464 1462 1462 1461 1460 1459 1459 1458 1457 1455 1454 1452 1451 1450 1449 1448 1448 1447 1449 1448 1447 1446 1446 1445 1445 1445 1445 1445 1445 1444 1443 1442
1473 1471 1468 1469 1466 1466 1466 1466 1465 1463 1462 1461 1460 1459 1457 1456 1456 1454 1453 1452 1451 1450 1448 1447 1446 1445 1445 1444 1444 1445 1445 1444 1444 1443 1443 1442 1442 1442 1443 1442 1440 1440 1440
1472 1470 1467 1468 1465 1463 1463 1464 1462 1460 1458 1458 1457 1455 1453 1452 1451 1449 1448 1447 1446 1445 1444 1444 1443 1442 1441 1440 1440 1440 1442 1442 1441 1440 1440 1440 1440 1440 1439 1438 1438 1438 1436
1471 1469 1467 1465 1464 1462 1461 1460 1458 1456 1455 1454 1452 1450 1449 1448 1446 1445 1443 1442 1441 1440 1440 1439 1439 1438 1437 1437 1436 1436 1437 1438 1437 1436 1436 1437 1436 1435 1435 1435 1433 1432 1430
1469 1467 1464 1462 1462 1460 1458 1457 1454 1452 1450 1448 1447 1445 1443 1442 1441 1440 1438 1437 1436 1435 1435 1435 1434 1434 1434 1433 1433 1433 1434 1433 1433 1432 1432 1431 1431 1431 1430 1429 1427 1426 1424
1467 1464 1461 1459 1457 1456 1455 1452 1450 1447 1445 1443 1441 1439 1437 1436 1435 1434 1433 1432 1431 1430 1430 1431 1431 1430 1430 1430 1430 1431 1431 1429 1428 1427 1426 1426 1426 1425 1424 1423 1421 1420 1419
1464 1461 1459 1456 1453 1451 1449 1447 1445 1442 1439 1436 1435 1433 1431 1430 1428 1427 1427 1426 1425 1425 1427 1427 1427 1426 1426 1427 1427 1427 1426 1425 1423 1422 1421 1421 1421 1420 1418 1417 1415 1414 1413